TimePST,TemperatureF,Dew PointF,Humidity,Sea Level PressureIn,VisibilityMPH,Wind Direction,Wind SpeedMPH,Gust SpeedMPH,PrecipitationIn,Events,Conditions,WindDirDegrees,DateUTC
12:53 AM,23.0,19.9,88,30.08,10.0,Calm,Calm,-,N/A,,Clear,0,2013-11-18 08:53:00
1:53 AM,27.0,24.1,89,30.05,10.0,East,3.5,-,N/A,,Clear,90,2013-11-18 09:53:00
2:53 AM,25.0,21.9,88,30.05,10.0,Calm,Calm,-,N/A,,Clear,0,2013-11-18 10:53:00
3:53 AM,25.0,21.9,88,30.05,10.0,Calm,Calm,-,N/A,,Clear,0,2013-11-18 11:53:00
4:53 AM,25.0,21.9,88,30.09,10.0,Calm,Calm,-,N/A,,Clear,0,2013-11-18 12:53:00
5:53 AM,27.0,24.1,89,30.07,10.0,Calm,Calm,-,N/A,,Clear,0,2013-11-18 13:53:00
6:53 AM,26.1,23.0,88,30.09,10.0,Calm,Calm,-,N/A,,Clear,0,2013-11-18 14:53:00
7:53 AM,28.0,25.0,88,30.09,10.0,Calm,Calm,-,N/A,,Clear,0,2013-11-18 15:53:00
8:53 AM,33.1,28.9,85,30.08,10.0,Calm,Calm,-,N/A,,Overcast,0,2013-11-18 16:53:00
9:53 AM,35.1,28.9,78,30.09,10.0,Calm,Calm,-,N/A,,Overcast,0,2013-11-18 17:53:00
10:53 AM,37.9,30.0,73,30.09,10.0,Calm,Calm,-,N/A,,Overcast,0,2013-11-18 18:53:00
11:53 AM,45.0,32.0,60,30.05,10.0,SSW,5.8,-,N/A,,Overcast,210,2013-11-18 19:53:00
12:53 PM,45.0,34.0,65,30.01,10.0,SSW,3.5,-,N/A,,Overcast,210,2013-11-18 20:53:00
1:53 PM,48.0,35.1,61,29.97,6.0,South,13.8,-,N/A,,Haze,170,2013-11-18 21:53:00
2:53 PM,46.0,34.0,63,29.99,10.0,South,9.2,-,N/A,,Overcast,190,2013-11-18 22:53:00
3:53 PM,46.0,35.1,66,29.98,10.0,SSW,6.9,-,N/A,,Overcast,210,2013-11-18 23:53:00
4:53 PM,44.1,34.0,68,29.97,10.0,SSW,4.6,-,N/A,,Overcast,210,2013-11-19 00:53:00
5:53 PM,45.0,34.0,65,29.96,10.0,South,10.4,-,N/A,,Overcast,180,2013-11-19 01:53:00
6:53 PM,43.0,35.1,74,29.96,10.0,South,9.2,-,N/A,,Mostly Cloudy,180,2013-11-19 02:53:00
7:53 PM,44.1,35.1,71,29.96,10.0,SSE,10.4,-,N/A,,Overcast,160,2013-11-19 03:53:00
8:53 PM,42.1,37.9,85,29.96,9.0,SSW,6.9,-,0.01,Rain,Light Rain,200,2013-11-19 04:53:00
9:53 PM,42.1,37.9,85,29.95,9.0,SW,3.5,-,0.02,Rain,Light Rain,220,2013-11-19 05:53:00
10:05 PM,41.0,37.4,87,29.95,10.0,South,3.5,-,0.00,Rain,Light Rain,180,2013-11-19 06:05:00
10:53 PM,41.0,37.9,89,29.94,10.0,South,13.8,-,0.03,Rain,Light Rain,170,2013-11-19 06:53:00
11:53 PM,41.0,37.9,89,29.92,10.0,SSE,10.4,-,0.01,,Overcast,160,2013-11-19 07:53:00